Notices

What's New in latest Release from April 7th, 2021:

- Updated Glossary, including Speed of Maximum Gust, and Total Hourly Precipitation

- Updated national and regional climate services offices contacts and prices information

- Addition of station inventory lists for 1981-2010, 1971-2000, and 1961-1990 Normals.

If you haven't already, please take our survey and provide feedback about our website: https://eccc.sondage-survey.ca/f/LanguageSelection.aspx?s=442ca660-fcf1-47c0-95a9-59707d6fd709

Hourly Data Report for November 09, 2017

VICTORIA UNIVERSITY CS
BRITISH COLUMBIA

48°27'25.200" N
123°18'16.600" W
60.10 m
1018598
71783
WYJ

Download Data

Hourly Data (November 2017)
Hourly Data Report for November 9, 2017
TIME
LST
Temp Definition
°C
Dew Point Definition
°C
Rel Hum Definition
%
Precip. Amount Definition
mm

Wind Dir Definition
10's deg

Wind Spd Definition
km/h
Visibility Definition
km
Stn Press Definition
kPa
Hmdx Definition


Wind Chill Definition


Weather Definition


00:00 8.2 5.4 83 0.0 8 8   99.78     LegendNANA
01:00 8.6 5.6 82 0.0 7 5   99.75     LegendNANA
02:00 8.7 5.4 80 0.0 11 6   99.66     LegendNANA
03:00 8.4 5.3 81 0.0 6 3   99.68     LegendNANA
04:00 8.3 4.0 74 0.0 2 6   99.64     LegendNANA
05:00 8.0 4.2 77 0.0 1 8   99.65     LegendNANA
06:00 8.2 4.5 77 0.0 1 8   99.60     LegendNANA
07:00 8.1 4.6 79 0.0 1 10   99.62     LegendNANA
08:00 7.5 3.9 78 0.0 36 11   99.69     LegendNANA
09:00 7.3 4.8 84 0.3 36 10   99.71     LegendNANA
10:00 8.3 4.9 79 0.0 5 3   99.75     LegendNANA
11:00 9.0 5.6 79 0.0 3 5   99.79     LegendNANA
12:00 8.7 5.7 81 0.0 36 11   99.80     LegendNANA
13:00 8.9 6.4 84 0.0 1 9   99.83     LegendNANA
14:00 8.6 6.1 84 0.0 34 12   99.90     LegendNANA
15:00 7.7 6.2 90 0.0 34 9   99.97     LegendNANA
16:00 8.0 6.6 91 0.0 1 7   100.06     LegendNANA
17:00 7.3 6.2 93 0.0 35 5   100.12     LegendNANA
18:00 5.9 4.8 93 0.2 32 3   100.18     LegendNANA
19:00 6.6 5.9 95 0.0 33 2   100.23     LegendNANA
20:00 6.4 5.8 96 0.0   0   100.25     LegendNANA
21:00 7.2 6.6 96 0.0 0 1   100.29     LegendNANA
22:00 7.6 7.1 97 0.0 7 2   100.32     LegendNANA
23:00 8.2 7.4 95 0.0 7 3   100.34     LegendNANA

Notes on Data Quality.

Legend

  • E = Estimated
  • M = Missing
  • NA = Not Available*
  • [empty] = Indicates an unobserved value
Date modified: